Time,TemperatureF,DewpointF,PressureIn,WindDirection,WindDirectionDegrees,WindSpeedMPH,WindSpeedGustMPH,Humidity,HourlyPrecipIn,Conditions,Clouds,dailyrainin,SolarRadiationWatts/m^2,SoftwareType,DateUTC
2013-10-07 00:00:00,50.0,46.0,-100.00,SSE,157,4.0,-999.0,88,-99.99,,,-99.99,0.000000,,2013-10-07 04:00:00,
2013-10-07 00:44:00,50.0,46.0,-100.00,SSE,157,4.0,-999.0,88,-99.99,,,-99.99,0.000000,,2013-10-07 04:44:00,
2013-10-07 00:53:00,50.0,46.0,-100.00,SSE,157,4.0,-999.0,88,-99.99,,,-99.99,0.000000,,2013-10-07 04:53:00,
2013-10-07 01:00:00,49.0,46.0,-100.00,South,180,3.0,-999.0,89,-99.99,,,-99.99,0.000000,,2013-10-07 05:00:00,
2013-10-07 01:43:00,49.0,46.0,-100.00,South,180,3.0,-999.0,89,-99.99,,,-99.99,0.000000,,2013-10-07 05:43:00,
2013-10-07 01:52:00,49.0,46.0,-100.00,South,180,3.0,-999.0,89,-99.99,,,-99.99,0.000000,,2013-10-07 05:52:00,
2013-10-07 02:00:00,48.0,46.0,-100.00,South,180,3.0,-999.0,90,-99.99,,,-99.99,0.000000,,2013-10-07 06:00:00,
2013-10-07 02:42:00,48.0,46.0,-100.00,South,180,3.0,-999.0,90,-99.99,,,-99.99,0.000000,,2013-10-07 06:42:00,
2013-10-07 02:53:00,48.0,46.0,-100.00,South,180,3.0,-999.0,90,-99.99,,,-99.99,0.000000,,2013-10-07 06:53:00,
2013-10-07 03:00:00,49.0,45.0,-100.00,South,180,4.0,-999.0,87,-99.99,,,-99.99,0.000000,,2013-10-07 07:00:00,
2013-10-07 03:42:00,49.0,45.0,-100.00,South,180,4.0,-999.0,87,-99.99,,,-99.99,0.000000,,2013-10-07 07:42:00,
2013-10-07 03:52:00,49.0,45.0,-100.00,South,180,4.0,-999.0,87,-99.99,,,-99.99,0.000000,,2013-10-07 07:52:00,
2013-10-07 04:00:00,49.0,45.0,-100.00,SSW,202,3.0,-999.0,88,-99.99,,,-99.99,0.000000,,2013-10-07 08:00:00,
2013-10-07 04:42:00,49.0,45.0,-100.00,SSW,202,3.0,-999.0,88,-99.99,,,-99.99,0.000000,,2013-10-07 08:42:00,
2013-10-07 04:52:00,49.0,45.0,-100.00,SSW,202,3.0,-999.0,88,-99.99,,,-99.99,0.000000,,2013-10-07 08:52:00,
2013-10-07 05:00:00,49.0,46.0,-100.00,South,180,3.0,-999.0,88,-99.99,,,-99.99,0.000000,,2013-10-07 09:00:00,
2013-10-07 05:43:00,49.0,46.0,-100.00,South,180,3.0,-999.0,88,-99.99,,,-99.99,0.000000,,2013-10-07 09:43:00,
2013-10-07 05:54:00,49.0,46.0,-100.00,South,180,3.0,-999.0,88,-99.99,,,-99.99,0.000000,,2013-10-07 09:54:00,
2013-10-07 06:00:00,50.0,47.0,-100.00,SSW,202,3.0,-999.0,89,0.05,,,-99.99,0.000000,,2013-10-07 10:00:00,
2013-10-07 06:43:00,50.0,47.0,-100.00,SSW,202,3.0,-999.0,89,0.05,,,-99.99,0.000000,,2013-10-07 10:43:00,
2013-10-07 06:53:00,50.0,47.0,-100.00,SSW,202,3.0,-999.0,89,0.05,,,-99.99,0.000000,,2013-10-07 10:53:00,
2013-10-07 07:00:00,50.0,49.0,-100.00,SW,225,7.0,-999.0,94,0.29,,,-99.99,0.000000,,2013-10-07 11:00:00,
2013-10-07 07:42:00,50.0,49.0,-100.00,SW,225,7.0,-999.0,94,0.29,,,-99.99,0.000000,,2013-10-07 11:42:00,
2013-10-07 07:52:00,50.0,49.0,-100.00,SW,225,7.0,-999.0,94,0.29,,,-99.99,0.000000,,2013-10-07 11:52:00,
2013-10-07 08:00:00,49.0,48.0,-100.00,WNW,292,4.0,-999.0,96,0.05,,,-99.99,0.000000,,2013-10-07 12:00:00,
2013-10-07 08:43:00,49.0,48.0,-100.00,WNW,292,4.0,-999.0,96,0.05,,,-99.99,0.000000,,2013-10-07 12:43:00,
2013-10-07 08:52:00,49.0,48.0,-100.00,WNW,292,4.0,-999.0,96,0.05,,,-99.99,0.000000,,2013-10-07 12:52:00,
2013-10-07 09:00:00,49.0,48.0,-100.00,West,270,5.0,-999.0,94,0.01,,,-99.99,5.800000,,2013-10-07 13:00:00,
2013-10-07 09:42:00,49.0,48.0,-100.00,West,270,5.0,-999.0,94,0.01,,,-99.99,5.800000,,2013-10-07 13:42:00,
2013-10-07 09:52:00,49.0,48.0,-100.00,West,270,5.0,-999.0,94,0.01,,,-99.99,5.800000,,2013-10-07 13:52:00,
2013-10-07 10:00:00,49.0,46.0,-100.00,West,270,6.0,-999.0,90,0.01,,,-99.99,42.919998,,2013-10-07 14:00:00,
2013-10-07 10:43:00,49.0,46.0,-100.00,West,270,6.0,-999.0,90,0.01,,,-99.99,42.919998,,2013-10-07 14:43:00,
2013-10-07 10:52:00,49.0,46.0,-100.00,West,270,6.0,-999.0,90,0.01,,,-99.99,42.919998,,2013-10-07 14:52:00,
2013-10-07 11:00:00,51.0,45.0,-100.00,West,270,7.0,-999.0,80,-99.99,,,-99.99,335.239990,,2013-10-07 15:00:00,
2013-10-07 11:43:00,51.0,45.0,-100.00,West,270,7.0,-999.0,80,-99.99,,,-99.99,335.239990,,2013-10-07 15:43:00,
2013-10-07 11:54:00,51.0,45.0,-100.00,West,270,7.0,-999.0,80,-99.99,,,-99.99,335.239990,,2013-10-07 15:54:00,
2013-10-07 12:00:00,52.0,45.0,-100.00,WSW,247,9.0,-999.0,75,0.01,,,-99.99,316.679993,,2013-10-07 16:00:00,
2013-10-07 12:43:00,52.0,45.0,-100.00,WSW,247,9.0,-999.0,75,0.01,,,-99.99,316.679993,,2013-10-07 16:43:00,
2013-10-07 12:53:00,52.0,45.0,-100.00,WSW,247,9.0,-999.0,75,0.01,,,-99.99,316.679993,,2013-10-07 16:53:00,
2013-10-07 13:00:00,54.0,44.0,-100.00,WSW,247,9.0,-999.0,69,-99.99,,,-99.99,503.440002,,2013-10-07 17:00:00,
2013-10-07 13:42:00,54.0,44.0,-100.00,WSW,247,9.0,-999.0,69,-99.99,,,-99.99,503.440002,,2013-10-07 17:42:00,
2013-10-07 13:53:00,54.0,44.0,-100.00,WSW,247,9.0,-999.0,69,-99.99,,,-99.99,503.440002,,2013-10-07 17:53:00,
2013-10-07 14:00:00,54.0,45.0,-100.00,SW,225,12.0,-999.0,71,-99.99,,,-99.99,309.720001,,2013-10-07 18:00:00,
2013-10-07 14:42:00,54.0,45.0,-100.00,SW,225,12.0,-999.0,71,-99.99,,,-99.99,309.720001,,2013-10-07 18:42:00,
2013-10-07 14:52:00,54.0,45.0,-100.00,SW,225,12.0,-999.0,71,-99.99,,,-99.99,309.720001,,2013-10-07 18:52:00,
2013-10-07 15:00:00,54.0,45.0,-100.00,SSW,202,14.0,-999.0,71,-99.99,,,-99.99,291.160004,,2013-10-07 19:00:00,
2013-10-07 15:42:00,54.0,45.0,-100.00,SSW,202,14.0,-999.0,71,-99.99,,,-99.99,291.160004,,2013-10-07 19:42:00,
2013-10-07 15:53:00,54.0,45.0,-100.00,SSW,202,14.0,-999.0,71,-99.99,,,-99.99,291.160004,,2013-10-07 19:53:00,
2013-10-07 16:00:00,56.0,44.0,-100.00,SW,225,13.0,-999.0,64,-99.99,,,-99.99,367.720001,,2013-10-07 20:00:00,
2013-10-07 16:43:00,56.0,44.0,-100.00,SW,225,13.0,-999.0,64,-99.99,,,-99.99,367.720001,,2013-10-07 20:43:00,
2013-10-07 16:52:00,56.0,44.0,-100.00,SW,225,13.0,-999.0,64,-99.99,,,-99.99,367.720001,,2013-10-07 20:52:00,
2013-10-07 17:00:00,57.0,45.0,-100.00,SW,225,11.0,-999.0,63,-99.99,,,-99.99,286.519989,,2013-10-07 21:00:00,
2013-10-07 17:43:00,57.0,45.0,-100.00,SW,225,11.0,-999.0,63,-99.99,,,-99.99,286.519989,,2013-10-07 21:43:00,
2013-10-07 17:55:00,57.0,45.0,-100.00,SW,225,11.0,-999.0,63,-99.99,,,-99.99,286.519989,,2013-10-07 21:55:00,
2013-10-07 18:00:00,57.0,45.0,-100.00,SW,225,10.0,-999.0,63,-99.99,,,-99.99,191.399994,,2013-10-07 22:00:00,
2013-10-07 18:43:00,57.0,45.0,-100.00,SW,225,10.0,-999.0,63,-99.99,,,-99.99,191.399994,,2013-10-07 22:43:00,
2013-10-07 18:53:00,57.0,45.0,-100.00,SW,225,10.0,-999.0,63,-99.99,,,-99.99,191.399994,,2013-10-07 22:53:00,
2013-10-07 19:00:00,57.0,45.0,-100.00,WSW,247,6.0,-999.0,64,-99.99,,,-99.99,71.919998,,2013-10-07 23:00:00,
2013-10-07 19:42:00,57.0,45.0,-100.00,WSW,247,6.0,-999.0,64,-99.99,,,-99.99,71.919998,,2013-10-07 23:42:00,
2013-10-07 19:52:00,57.0,45.0,-100.00,WSW,247,6.0,-999.0,64,-99.99,,,-99.99,71.919998,,2013-10-07 23:52:00,
2013-10-07 20:00:00,54.0,45.0,-100.00,West,270,2.0,-999.0,72,-99.99,,,-99.99,1.160000,,2013-10-08 00:00:00,
2013-10-07 20:42:00,54.0,45.0,-100.00,West,270,2.0,-999.0,72,-99.99,,,-99.99,1.160000,,2013-10-08 00:42:00,
2013-10-07 20:52:00,54.0,45.0,-100.00,West,270,2.0,-999.0,72,-99.99,,,-99.99,1.160000,,2013-10-08 00:52:00,
2013-10-07 21:00:00,51.0,45.0,-100.00,NNE,22,3.0,-999.0,79,-99.99,,,-99.99,0.000000,,2013-10-08 01:00:00,
2013-10-07 21:42:00,51.0,45.0,-100.00,NNE,22,3.0,-999.0,79,-99.99,,,-99.99,0.000000,,2013-10-08 01:42:00,
2013-10-07 21:52:00,51.0,45.0,-100.00,NNE,22,3.0,-999.0,79,-99.99,,,-99.99,0.000000,,2013-10-08 01:52:00,
2013-10-07 22:00:00,50.0,44.0,-100.00,NE,45,2.0,-999.0,81,-99.99,,,-99.99,0.000000,,2013-10-08 02:00:00,
2013-10-07 22:42:00,50.0,44.0,-100.00,NE,45,2.0,-999.0,81,-99.99,,,-99.99,0.000000,,2013-10-08 02:42:00,
2013-10-07 22:53:00,50.0,44.0,-100.00,NE,45,2.0,-999.0,81,-99.99,,,-99.99,0.000000,,2013-10-08 02:53:00,
2013-10-07 23:00:00,49.0,44.0,-100.00,ENE,67,1.0,-999.0,82,-99.99,,,-99.99,0.000000,,2013-10-08 03:00:00,
2013-10-07 23:44:00,49.0,44.0,-100.00,ENE,67,1.0,-999.0,82,-99.99,,,-99.99,0.000000,,2013-10-08 03:44:00,
2013-10-07 23:55:00,49.0,44.0,-100.00,ENE,67,1.0,-999.0,82,-99.99,,,-99.99,0.000000,,2013-10-08 03:55:00,